GW4563 Weather Reports


time (UTC)temp
F
wind
direction
speed
knots
gust
knots
rain 1hr
in
rain 24hr
in
rain mn
in
humidity
%
barometer
mb
20260906125619 73 80 0.0 1.7 0.00 0.00 0.00 99 1016.9
20260906125117 73 195 0.0 0.9 0.00 0.00 0.00 99 1016.8
20260906124613 72 224 0.0 0.9 0.00 0.00 0.00 99 1016.9
20260906124108 72 130 0.9 1.7 0.00 0.00 0.00 99 1017.0
20260906123608 72 111 0.9 0.9 0.00 0.00 0.00 99 1016.9
20260906123103 72 117 0.0 0.9 0.00 0.00 0.00 99 1016.7
20260906122556 71 156 1.7 1.7 0.00 0.00 0.00 99 1016.5
20260906122053 71 162 0.0 1.7 0.00 0.00 0.00 99 1016.8
20260906121548 71 102 0.0 1.7 0.00 0.00 0.00 99 1016.6
20260906121045 71 110 0.9 1.7 0.00 0.00 0.00 99 1016.8
20260906120539 71 114 0.9 1.7 0.00 0.00 0.00 99 1016.6
20260906120036 71 170 0.0 0.9 0.00 0.00 0.00 99 1016.5
20260906115531 71 103 0.9 0.9 0.00 0.00 0.00 99 1016.5
20260906115026 71 235 0.0 0.9 0.00 0.00 0.00 99 1016.4
20260906114520 71 118 0.0 0.9 0.00 0.00 0.00 99 1016.4
20260906114016 71 205 0.0 1.7 0.00 0.00 0.00 99 1016.5
20260906113515 71 116 0.0 1.7 0.00 0.00 0.00 99 1016.6
20260906113010 71 127 0.9 1.7 0.00 0.00 0.00 99 1016.5
20260906112505 71 100 0.0 0.9 0.00 0.00 0.00 99 1016.6
20260906112001 71 119 0.0 1.7 0.00 0.00 0.00 99 1016.5
20260906111500 71 253 0.0 0.9 0.00 0.00 0.00 99 1016.4
20260906110956 71 80 0.9 1.7 0.00 0.00 0.00 99 1016.4
20260906110451 71 85 0.9 1.7 0.00 0.00 0.00 99 1016.5
20260906105949 71 150 0.0 0.9 0.00 0.00 0.00 99 1016.3
20260906105446 71 81 0.0 1.7 0.00 0.00 0.00 99 1016.3
20260906104941 71 224 0.0 1.7 0.00 0.00 0.00 99 1016.4
20260906104440 71 118 0.0 1.7 0.00 0.00 0.00 99 1016.3
20260906103939 71 104 0.0 1.7 0.00 0.00 0.00 99 1016.7
20260906103438 71 120 0.0 1.7 0.00 0.00 0.00 99 1016.4
20260906102933 71 187 0.9 1.7 0.00 0.00 0.00 99 1016.4
20260906102433 71 311 0.0 0.9 0.00 0.00 0.00 99 1016.3
20260906101927 71 39 0.0 0.9 0.00 0.00 0.00 99 1016.4
20260906101423 71 78 0.0 0.9 0.00 0.00 0.00 99 1016.3
20260906100918 71 44 0.0 1.7 0.00 0.00 0.00 99 1016.3
20260906100417 71 356 0.0 1.7 0.00 0.00 0.00 99 1016.2
20260906095912 71 76 0.0 1.7 0.00 0.00 0.00 99 1016.3
20260906095408 71 65 0.0 1.7 0.00 0.00 0.00 99 1016.2
20260906094907 71 89 0.0 0.9 0.00 0.00 0.00 99 1016.3
20260906094403 71 60 0.0 1.7 0.00 0.00 0.00 99 1016.3
20260906093858 71 120 0.0 1.7 0.00 0.00 0.00 99 1016.2
20260906093355 71 201 0.9 1.7 0.00 0.00 0.00 99 1016.1
20260906092855 71 64 0.0 0.9 0.00 0.00 0.00 99 1016.2
20260906092355 71 132 0.9 1.7 0.00 0.00 0.00 99 1016.2
20260906091850 71 114 0.0 1.7 0.00 0.00 0.00 99 1016.2
20260906091346 71 138 0.0 1.7 0.00 0.00 0.00 99 1016.2
20260906090842 71 131 0.0 1.7 0.00 0.00 0.00 99 1016.1
20260906090342 71 127 1.7 1.7 0.00 0.00 0.00 99 1016.3
20260906085836 71 83 0.9 1.7 0.00 0.00 0.00 99 1016.1
20260906085330 71 315 0.0 0.9 0.00 0.00 0.00 99 1016.0
20260906084825 71 69 0.0 1.7 0.00 0.00 0.00 99 1016.1
20260906084324 71 203 0.0 1.7 0.00 0.00 0.00 99 1016.1
20260906083819 71 85 0.9 1.7 0.00 0.00 0.00 99 1015.8
20260906083314 71 106 1.7 1.7 0.00 0.00 0.00 99 1015.7
20260906082809 71 152 1.7 1.7 0.00 0.00 0.00 99 1015.7
20260906082306 71 155 0.0 1.7 0.00 0.00 0.00 99 1015.9
20260906081759 71 108 0.9 1.7 0.00 0.00 0.00 99 1015.8
20260906081255 71 137 0.0 0.9 0.00 0.00 0.00 99 1016.0
20260906080752 71 268 0.0 1.7 0.00 0.00 0.00 99 1015.8
20260906080248 71 78 0.9 1.7 0.00 0.00 0.00 99 1015.9
20260906075747 71 53 0.0 1.7 0.00 0.00 0.00 99 1015.9
20260906075247 71 95 0.9 1.7 0.00 0.00 0.00 99 1016.0
20260906074743 71 65 0.0 1.7 0.00 0.00 0.00 99 1015.8
20260906074242 71 153 0.0 1.7 0.00 0.00 0.00 99 1015.9
20260906073741 71 123 1.7 1.7 0.00 0.00 0.00 99 1015.8
20260906073236 71 122 0.0 1.7 0.00 0.00 0.00 99 1016.1
20260906072732 71 88 0.0 1.7 0.00 0.00 0.00 99 1015.9
20260906072228 71 148 0.9 1.7 0.00 0.00 0.00 99 1016.0
20260906071724 71 269 0.0 0.9 0.00 0.00 0.00 99 1016.4
20260906071224 71 138 0.0 0.9 0.00 0.00 0.00 99 1016.0
20260906070720 71 156 0.9 1.7 0.00 0.00 0.00 99 1016.0
20260906070216 71 236 0.0 0.9 0.00 0.00 0.00 99 1016.1
20260906065715 71 36 0.0 1.7 0.00 0.00 0.00 99 1016.1
20260906065210 71 85 0.9 1.7 0.00 0.00 0.00 99 1016.3
20260906064706 71 126 0.0 1.7 0.00 0.00 0.00 99 1016.3
20260906064201 71 112 0.0 1.7 0.00 0.00 0.00 99 1016.2
20260906063656 71 166 0.0 0.9 0.00 0.00 0.00 99 1016.1
20260906063152 72 146 0.0 1.7 0.00 0.00 0.00 99 1016.1
20260906062648 72 138 0.9 1.7 0.00 0.00 0.00 99 1016.2
20260906062146 72 95 0.9 1.7 0.00 0.00 0.00 99 1016.2
20260906061643 72 115 0.0 1.7 0.00 0.00 0.00 99 1016.3
20260906061142 72 168 0.9 1.7 0.00 0.00 0.00 99 1016.4
20260906060639 72 154 0.0 1.7 0.00 0.00 0.00 99 1016.3
20260906060136 72 137 0.9 1.7 0.00 0.00 0.00 99 1016.4
20260906055631 72 124 0.0 1.7 0.00 0.00 0.00 99 1016.3
20260906055126 72 116 0.0 1.7 0.00 0.00 0.00 99 1016.2
20260906054621 72 116 0.9 1.7 0.00 0.00 0.00 99 1016.3
20260906054116 72 138 0.9 1.7 0.00 0.00 0.00 99 1016.3
20260906053613 72 106 0.0 0.9 0.00 0.00 0.00 99 1016.3
20260906053108 72 32 0.0 0.9 0.00 0.00 0.00 99 1016.3
20260906052603 72 111 0.0 0.9 0.00 0.00 0.00 99 1016.6
20260906052100 72 177 0.9 1.7 0.00 0.00 0.00 99 1016.5
20260906051556 72 150 1.7 1.7 0.00 0.00 0.00 99 1016.7
20260906051051 72 249 0.0 0.9 0.00 0.00 0.00 99 1016.5
20260906050546 72 118 0.0 0.9 0.00 0.00 0.00 99 1016.5
20260906050041 72 40 0.0 1.7 0.00 0.00 0.00 99 1016.4
20260906045539 72 53 0.0 0.9 0.00 0.00 0.00 99 1016.6
20260906045035 72 123 0.9 1.7 0.00 0.00 0.00 99 1016.6
20260906044531 72 253 0.0 1.7 0.00 0.00 0.00 99 1016.4
20260906044026 72 195 0.9 1.7 0.00 0.00 0.00 99 1016.6
20260906043521 72 105 0.9 1.7 0.00 0.00 0.00 99 1016.4
20260906043018 72 136 0.0 1.7 0.00 0.00 0.00 99 1016.5
20260906042517 72 185 1.7 1.7 0.00 0.00 0.00 99 1016.4
20260906042017 72 175 0.0 1.7 0.00 0.00 0.00 99 1016.4
20260906041513 72 283 0.0 0.9 0.00 0.00 0.00 99 1016.5
20260906041013 72 138 0.0 1.7 0.00 0.00 0.00 99 1016.3
20260906040508 72 221 0.0 0.9 0.00 0.00 0.00 99 1016.5
20260906040003 72 122 0.0 0.9 0.00 0.00 0.00 99 1016.2
20260906035458 72 64 0.0 0.9 0.00 0.00 0.00 99 1016.3
20260906034954 72 66 0.0 1.7 0.00 0.00 0.00 99 1016.5
20260906034454 72 166 0.0 1.7 0.00 0.00 0.00 99 1016.3
20260906033949 72 57 1.7 1.7 0.00 0.00 0.00 99 1016.7
20260906033444 72 110 1.7 1.7 0.00 0.00 0.00 99 1016.5
20260906032940 73 10 0.0 1.7 0.00 0.00 0.00 99 1016.5
20260906032437 72 39 0.9 1.7 0.00 0.00 0.00 99 1016.4
20260906031930 72 269 0.0 1.7 0.00 0.00 0.00 99 1016.7
20260906031426 72 256 0.0 1.7 0.00 0.00 0.00 99 1016.8
20260906030921 72 0 0.0 0.9 0.00 0.00 0.00 99 1016.8
20260906030415 72 178 0.9 1.7 0.00 0.00 0.00 99 1017.1
20260906025910 73 235 0.9 0.9 0.00 0.00 0.00 99 1017.0
20260906025404 73 91 1.7 1.7 0.00 0.00 0.00 99 1017.4
20260906024903 73 83 0.9 1.7 0.00 0.00 0.00 99 1017.5
20260906024402 73 32 0.0 0.9 0.00 0.00 0.00 99 1017.3
20260906023858 73 77 0.9 1.7 0.00 0.00 0.00 99 1017.5
20260906023354 73 138 0.9 1.7 0.00 0.00 0.00 99 1017.6
20260906022854 73 141 0.9 1.7 0.00 0.00 0.00 99 1017.3
20260906022349 73 51 0.0 1.7 0.00 0.00 0.00 99 1017.0
20260906021845 73 230 0.0 1.7 0.00 0.00 0.00 99 1017.2
20260906021344 73 106 0.0 0.9 0.00 0.00 0.00 99 1017.2
20260906020839 73 217 1.7 1.7 0.00 0.00 0.00 99 1017.3
20260906020338 73 98 0.9 1.7 0.00 0.00 0.00 99 1017.3
20260906015833 73 111 1.7 2.6 0.00 0.00 0.00 99 1017.3
20260906015332 73 187 0.0 1.7 0.00 0.00 0.00 99 1017.4
20260906014826 73 204 0.9 2.6 0.00 0.00 0.00 99 1017.2
20260906014321 73 195 0.0 1.7 0.00 0.00 0.00 99 1017.0
20260906013817 73 152 0.0 1.7 0.00 0.00 0.00 99 1017.0
20260906013313 73 182 1.7 1.7 0.00 0.00 0.00 99 1017.1
20260906012808 72 135 0.9 1.7 0.00 0.00 0.00 99 1017.0
20260906012306 72 186 0.0 1.7 0.00 0.00 0.00 99 1016.8
20260906011758 72 224 0.0 1.7 0.00 0.00 0.00 99 1017.2
20260906011257 72 187 0.9 1.7 0.00 0.00 0.00 99 1017.1
20260906010753 72 94 0.0 1.7 0.00 0.00 0.00 99 1017.0
20260906010249 73 237 1.7 2.6 0.00 0.00 0.00 99 1016.6
20260906005744 73 175 0.0 1.7 0.00 0.00 0.00 99 1016.6
20260906005244 72 180 0.0 1.7 0.00 0.00 0.00 99 1016.1
20260906004737 72 139 0.0 1.7 0.00 0.00 0.00 99 1016.3
20260906004232 73 127 0.9 1.7 0.00 0.00 0.00 99 1016.5
20260906003727 73 142 0.9 2.6 0.00 0.00 0.00 99 1016.2
20260906003223 73 99 1.7 2.6 0.00 0.00 0.00 99 1016.0
20260906002723 73 65 0.9 1.7 0.00 0.00 0.00 99 1015.8
20260906002218 73 201 0.9 1.7 0.00 0.00 0.00 99 1015.9
20260906001713 73 98 1.7 2.6 0.00 0.00 0.00 99 1015.8
20260906001213 73 205 1.7 2.6 0.00 0.00 0.00 99 1016.0
20260906000708 73 128 0.9 1.7 0.00 0.00 0.00 99 1016.0
20260906000204 73 145 1.7 1.7 0.00 0.00 0.00 99 1016.1
20260905235702 73 221 2.6 3.5 0.00 0.00 0.00 99 1016.3
20260905235157 74 126 2.6 3.5 0.00 0.00 0.00 98 1016.3
20260905234653 74 152 2.6 2.6 0.00 0.00 0.00 98 1016.5
20260905234148 75 197 3.5 4.3 0.00 0.00 0.00 97 1016.8
20260905233643 76 209 3.5 3.5 0.00 0.00 0.00 94 1016.6
20260905233142 79 223 3.5 3.5 0.00 0.00 0.00 88 1016.6
20260905232638 83 129 0.9 1.7 0.00 0.00 0.00 79 1016.2
20260905232134 86 180 1.7 3.5 0.00 0.00 0.00 75 1016.0
20260905231629 87 24 2.6 3.5 0.00 0.00 0.00 74 1015.1
20260905231125 87 144 0.9 2.6 0.00 0.00 0.00 79 1015.0
20260905230620 87 275 0.9 1.7 0.00 0.00 0.00 78 1015.0
20260905230119 88 177 0.9 2.6 0.00 0.00 0.00 76 1015.0
20260905225618 87 113 0.0 1.7 0.00 0.00 0.00 76 1015.2
20260905225108 87 48 2.6 2.6 0.00 0.00 0.00 77 1015.0
20260905224607 87 157 0.0 1.7 0.00 0.00 0.00 78 1014.9
20260905224106 86 113 0.9 2.6 0.00 0.00 0.00 79 1014.9
20260905223604 86 100 1.7 1.7 0.00 0.00 0.00 79 1015.0
20260905223100 87 62 0.0 1.7 0.00 0.00 0.00 79 1014.9
20260905222600 87 91 1.7 4.3 0.00 0.00 0.00 76 1014.7
20260905222055 87 163 1.7 1.7 0.00 0.00 0.00 80 1014.6
20260905221551 88 132 0.0 1.7 0.00 0.00 0.00 77 1014.5
20260905221047 87 89 0.0 1.7 0.00 0.00 0.00 79 1014.7
20260905220543 88 102 3.5 3.5 0.00 0.00 0.00 77 1014.6
20260905220039 89 138 0.0 1.7 0.00 0.00 0.00 75 1014.6
20260905215538 87 52 1.7 2.6 0.00 0.00 0.00 78 1014.6
20260905215034 88 130 0.0 1.7 0.00 0.00 0.00 78 1014.4
20260905214530 90 87 1.7 4.3 0.00 0.00 0.00 74 1014.3
20260905214025 90 220 0.9 1.7 0.00 0.00 0.00 73 1014.5
20260905213520 93 170 0.9 0.9 0.00 0.00 0.00 70 1014.4
20260905213016 91 174 0.0 1.7 0.00 0.00 0.00 72 1014.5
20260905212510 92 146 0.9 1.7 0.00 0.00 0.00 67 1014.3
20260905212010 90 205 0.0 0.9 0.00 0.00 0.00 69 1014.4
20260905211505 89 122 0.9 1.7 0.00 0.00 0.00 80 1014.5
20260905211001 89 161 0.0 0.9 0.00 0.00 0.00 82 1014.6
20260905210456 89 135 0.0 0.9 0.00 0.00 0.00 81 1014.6
20260905205955 89 132 0.9 0.9 0.00 0.00 0.00 81 1015.0
20260905205450 88 124 0.0 0.9 0.00 0.00 0.00 82 1014.6
20260905204949 89 125 0.9 1.7 0.00 0.00 0.00 82 1014.9
20260905204445 89 139 0.0 0.9 0.00 0.00 0.00 82 1014.7
20260905203944 88 163 0.0 0.9 0.00 0.00 0.00 84 1015.0
20260905203440 87 144 0.0 1.7 0.00 0.00 0.00 87 1015.2
20260905202935 86 61 0.9 1.7 0.00 0.00 0.00 88 1015.2
20260905202430 84 132 0.9 0.9 0.00 0.00 0.00 90 1015.2
20260905201926 82 177 0.0 1.7 0.00 0.00 0.00 92 1015.4
20260905201421 81 152 0.0 0.9 0.00 0.00 0.00 90 1015.5
20260905200921 80 204 1.7 1.7 0.00 0.00 0.00 91 1015.5
20260905200417 82 213 0.9 1.7 0.00 0.00 0.00 86 1015.7
20260905195914 84 105 0.9 1.7 0.00 0.00 0.00 82 1015.8
20260905195410 88 318 1.7 2.6 0.00 0.00 0.00 72 1015.9
20260905194906 89 116 0.0 1.7 0.00 0.00 0.00 67 1015.9
20260905194405 89 143 0.9 1.7 0.00 0.00 0.00 66 1015.9
20260905193859 90 119 0.0 1.7 0.00 0.00 0.00 65 1015.8
20260905193354 90 114 0.0 1.7 0.00 0.00 0.00 63 1016.0
20260905192850 91 110 1.7 1.7 0.00 0.00 0.00 63 1016.0
20260905192345 93 129 0.0 1.7 0.00 0.00 0.00 59 1016.1
20260905191844 95 124 1.7 1.7 0.00 0.00 0.00 55 1016.1
20260905191344 97 104 0.0 1.7 0.00 0.00 0.00 54 1016.0
20260905190837 97 128 0.9 1.7 0.00 0.00 0.00 54 1016.1
20260905190331 96 184 0.9 1.7 0.00 0.00 0.00 50 1016.1
20260905185829 95 243 0.9 2.6 0.00 0.00 0.00 51 1016.3
20260905185324 95 226 1.7 1.7 0.00 0.00 0.00 55 1016.2
20260905184818 92 195 0.0 2.6 0.00 0.00 0.00 60 1016.0
20260905184317 91 84 1.7 3.5 0.00 0.00 0.00 62 1016.3
20260905183816 93 112 1.7 1.7 0.00 0.00 0.00 60 1016.4
20260905183312 95 61 0.0 1.7 0.00 0.00 0.00 56 1016.7
20260905182812 97 96 0.9 0.9 0.00 0.00 0.00 55 1016.7
20260905182306 96 203 0.9 1.7 0.00 0.00 0.00 55 1016.7
20260905181802 97 117 1.7 1.7 0.00 0.00 0.00 53 1016.7
20260905181301 96 220 1.7 1.7 0.00 0.00 0.00 54 1016.8
20260905180800 96 104 0.0 1.7 0.00 0.00 0.00 55 1016.7
20260905180255 96 248 2.6 3.5 0.00 0.00 0.00 52 1016.9
20260905175750 95 110 0.9 2.6 0.00 0.00 0.00 56 1016.8
20260905175245 95 114 0.9 1.7 0.00 0.00 0.00 55 1016.7
20260905174739 94 112 1.7 2.6 0.00 0.00 0.00 62 1017.1
20260905174235 95 41 1.7 3.5 0.00 0.00 0.00 52 1017.1
20260905173732 94 202 1.7 1.7 0.00 0.00 0.00 54 1017.2
20260905173227 93 217 0.0 2.6 0.00 0.00 0.00 57 1017.3
20260905172726 95 55 0.0 0.9 0.00 0.00 0.00 55 1017.4
20260905172220 97 147 0.0 1.7 0.00 0.00 0.00 53 1017.4
20260905171716 96 243 0.9 3.5 0.00 0.00 0.00 54 1017.4
20260905171212 96 185 0.0 0.9 0.00 0.00 0.00 56 1017.3
20260905170709 95 157 1.7 3.5 0.00 0.00 0.00 56 1017.4
20260905170209 94 180 3.5 3.5 0.00 0.00 0.00 55 1017.6
20260905165704 93 212 1.7 4.3 0.00 0.00 0.00 56 1017.6
20260905165159 93 105 1.7 1.7 0.00 0.00 0.00 60 1017.6
20260905164653 91 70 0.9 1.7 0.00 0.00 0.00 61 1017.6
20260905164153 92 125 1.7 2.6 0.00 0.00 0.00 65 1017.8
20260905163649 91 201 1.7 1.7 0.00 0.00 0.00 61 1017.9
20260905163146 91 237 1.7 2.6 0.00 0.00 0.00 59 1017.8
20260905162642 91 120 2.6 2.6 0.00 0.00 0.00 66 1018.1
20260905162141 91 48 1.7 3.5 0.00 0.00 0.00 62 1018.1
20260905161640 91 208 2.6 3.5 0.00 0.00 0.00 61 1018.0
20260905161138 89 181 0.9 1.7 0.00 0.00 0.00 66 1018.0
20260905160632 90 126 0.0 2.6 0.00 0.00 0.00 62 1018.2
20260905160126 90 187 1.7 1.7 0.00 0.00 0.00 64 1018.3
20260905155626 89 200 1.7 3.5 0.00 0.00 0.00 63 1018.4
20260905155125 87 84 1.7 1.7 0.00 0.00 0.00 76 1018.2
20260905154620 87 92 1.7 1.7 0.00 0.00 0.00 72 1018.1
20260905154115 87 119 0.9 1.7 0.00 0.00 0.00 70 1018.4
20260905153611 87 111 0.9 1.7 0.00 0.00 0.00 69 1018.3
20260905153106 87 100 1.7 2.6 0.00 0.00 0.00 70 1018.4
20260905152601 87 125 0.9 1.7 0.00 0.00 0.00 70 1018.4
20260905152055 86 147 0.9 1.7 0.00 0.00 0.00 69 1018.6
20260905151551 85 121 0.0 1.7 0.00 0.00 0.00 76 1018.4
20260905151046 84 266 0.0 2.6 0.00 0.00 0.00 79 1018.2
20260905150541 85 195 0.9 1.7 0.00 0.00 0.00 69 1018.4
20260905150039 85 197 0.0 1.7 0.00 0.00 0.00 74 1018.4
20260905145532 85 231 0.0 1.7 0.00 0.00 0.00 71 1018.7
20260905145026 85 187 1.7 1.7 0.00 0.00 0.00 70 1018.6
20260905144521 85 18 0.9 1.7 0.00 0.00 0.00 76 1018.8
20260905144020 84 235 0.0 1.7 0.00 0.00 0.00 74 1018.8
20260905143519 83 222 2.6 2.6 0.00 0.00 0.00 75 1018.7
20260905143015 82 200 0.9 1.7 0.00 0.00 0.00 80 1019.0
20260905142513 83 84 0.0 1.7 0.00 0.00 0.00 79 1018.8
20260905142009 82 29 0.0 1.7 0.00 0.00 0.00 80 1018.9
20260905141509 81 156 0.0 3.5 0.00 0.00 0.00 80 1018.7
20260905141006 80 124 0.0 1.7 0.00 0.00 0.00 86 1018.8
20260905140500 79 265 0.0 0.9 0.00 0.00 0.00 88 1018.8
20260905135959 79 82 0.0 0.0 0.00 0.00 0.00 89 1018.7
20260905135455 78 62 0.0 0.9 0.00 0.00 0.00 90 1018.8
20260905134950 78 183 0.0 1.7 0.00 0.00 0.00 91 1018.8
20260905134449 78 100 0.9 0.9 0.00 0.00 0.00 91 1018.8
20260905133948 78 116 0.0 1.7 0.00 0.00 0.00 92 1018.9
20260905133443 77 145 0.9 1.7 0.00 0.00 0.00 92 1018.9
20260905132937 77 134 0.9 1.7 0.00 0.00 0.00 93 1018.9
20260905132432 76 115 0.0 1.7 0.00 0.00 0.00 94 1019.0
20260905131928 76 89 0.0 1.7 0.00 0.00 0.00 95 1018.9
20260905131424 76 122 0.9 1.7 0.00 0.00 0.00 96 1018.9
20260905130923 75 107 0.9 1.7 0.00 0.00 0.00 96 1019.1
20260905130418 75 221 0.0 0.9 0.00 0.00 0.00 98 1019.2
20260905125917 75 66 0.0 1.7 0.00 0.00 0.00 99 1019.1